Voltar ao catálogo

STARLINK-4775

AtivoComunicaçõesVLEO
NORAD 53934·PAYLOAD·🇺🇸 United States

Lançado Sep 24, 2022 de Cape Canaveral Space Force Station

Loading…

Próximas Passagens (próximas 24 horas)

TLE

AtualizadoSource: CelesTrak SupGP

Época: Sep 15, 2026, 01:49 UTC

1 53934C 22119BA  26258.07618056 -.00021148  00000+0 -13264-2 0  2588
2 53934  53.1576 168.3531 0001618  88.5744 338.9366 15.08839012    18

Acompanhe STARLINK-4775 em tempo real com AllMySat

Download on the App Store